{"data":{"norad_id":66350,"intl_designator":"2025-254C","name":"STARLINK-35829","alt_names":[],"object_type":"PAYLOAD","status":"ACTIVE","operator":null,"country":"US","launch_date":"2025-11-06","launch_site_code":"AFWTR","launch_vehicle":null,"mission":null,"orbit_class":"UNKNOWN","rcs_meters":null,"size_class":null,"mass_kg":null,"dimensions":null,"purposes":["comms"],"wikipedia_slug":null,"has_3d_model":false,"image_url":null,"decayed_at":null,"tle_current":{"epoch":"2026-09-20T23:24:54.511488Z","epoch_age_seconds":52366,"freshness":"FRESH","line1":"1 66350U 25254C   26263.97563092  .00002411  00000+0  89424-4 0  9996","line2":"2 66350  53.1588  44.0371 0001436  73.9724 286.1436 15.31707076 48893","mean_motion":15.31707076,"eccentricity":0.0001436,"inclination_deg":53.1588,"raan_deg":44.0371,"arg_perigee_deg":73.9724,"mean_anomaly_deg":286.1436,"bstar":8.9424e-5,"rev_number":4889,"period_min":94.012753650033,"perigee_km":469.73540641151,"apogee_km":471.7023978266,"semimajor_km":6848.8559021191,"source":"CELESTRAK","updated_at":"2026-09-21T09:00:35.879347Z"}}}